Overview Statistics Trail Chart Weather Telemetry Raw packets
 

This is the latest recevied weather packets stored in our database for station/object N7IGG. If no packets are shown the sender has not sent any weather packets the latest 10 day(s).

<< 4 5 6 7 8 9 10 >>
Time Temp. Humidity Pressure Rain* Wind** Luminosity Snow
1778165111 10.56° C 90% 1021.3 hPa 0 mm - 29 W/m² -
1778164809 10.56° C 90% 1021.2 hPa 0 mm - 28 W/m² -
1778164505 10.56° C 90% 1021.1 hPa 0 mm - 28 W/m² -
1778164203 10.56° C 90% 1021.2 hPa 0 mm - 28 W/m² -
1778163898 10.56° C 90% 1021.2 hPa 0 mm - 28 W/m² -
1778163595 10.56° C 90% 1021.5 hPa 0 mm - 29 W/m² -
1778163291 10.56° C 90% 1021.1 hPa 0 mm - 32 W/m² -
1778162988 10.56° C 90% 1021.2 hPa 0 mm - 34 W/m² -
1778162684 10.56° C 91% 1021.2 hPa 0 mm - 38 W/m² -
1778162382 11.11° C 91% 1021.1 hPa 0 mm - 29 W/m² -
1778162078 11.11° C 90% 1021.1 hPa 0 mm - 27 W/m² -
1778161776 11.11° C 90% 1020.9 hPa 0 mm - 23 W/m² -
1778161472 11.11° C 90% 1021.1 hPa 0 mm - 18 W/m² -
1778161169 11.11° C 89% 1021 hPa 0 mm - 17 W/m² -
1778160865 11.11° C 89% 1021.2 hPa 0 mm - 15 W/m² -
1778160564 11.11° C 89% 1021 hPa 0 mm - 9 W/m² -
1778160259 11.11° C 89% 1020.9 hPa 0 mm - 7 W/m² -
1778159956 11.11° C 89% 1020.8 hPa 0 mm - 7 W/m² -
1778159653 11.11° C 89% 1021 hPa 0 mm - 5 W/m² -
1778159350 11.11° C 89% 1020.9 hPa 0 mm - 4 W/m² -
1778159047 11.11° C 89% 1021 hPa 0 mm - 1 W/m² -
1778158746 11.11° C 89% 1021 hPa 0 mm - 0 W/m² -
1778158443 11.11° C 89% 1021 hPa 0 mm - 0 W/m² -
1778158140 11.11° C 89% 1020.9 hPa 0 mm - 0 W/m² -
1778157836 11.11° C 89% 1020.9 hPa 0 mm - 0 W/m² -

* Rain latest hour (hover to see other rain measurements)
** Current wind speed in m/s (hover to see current wind gust speed)